This is the latest recevied weather packets stored in our database for station/object WB0OCV. If no packets are shown the sender has not sent any weather packets the latest 10 day(s).
| Time | Temp. | Humidity | Pressure | Rain* | Wind** | Luminosity | Snow |
|---|---|---|---|---|---|---|---|
| 1777678442 | 10.56° C | 65% | 1012.6 hPa | 0 mm | - | 5 W/m² | - |
| 1777678137 | 11.11° C | 65% | 1012.6 hPa | 0 mm | - | 7 W/m² | - |
| 1777677835 | 11.11° C | 64% | 1012.4 hPa | 0 mm | - | 10 W/m² | - |
| 1777677532 | 11.11° C | 63% | 1012.7 hPa | 0 mm | - | 12 W/m² | - |
| 1777677230 | 11.67° C | 63% | 1012.4 hPa | 0 mm | - | 14 W/m² | - |
| 1777676928 | 11.67° C | 61% | 1012.3 hPa | 0 mm | - | 17 W/m² | - |
| 1777676627 | 11.67° C | 61% | 1012.2 hPa | 0 mm | - | 19 W/m² | - |
| 1777676324 | 12.22° C | 59% | 1012.2 hPa | 0 mm | - | 21 W/m² | - |
| 1777676022 | 12.22° C | 59% | 1012.2 hPa | 0 mm | - | 23 W/m² | - |
| 1777675717 | 12.22° C | 60% | 1012 hPa | 0 mm | - | 25 W/m² | - |
| 1777675415 | 12.22° C | 60% | 1012 hPa | 0 mm | - | 30 W/m² | - |
| 1777675111 | 12.22° C | 60% | 1011.9 hPa | 0 mm | - | 30 W/m² | - |
| 1777674807 | 12.78° C | 59% | 1012 hPa | 0 mm | - | 32 W/m² | - |
| 1777674504 | 12.78° C | 58% | 1011.9 hPa | 0 mm | - | 34 W/m² | - |
| 1777674202 | 12.78° C | 59% | 1011.8 hPa | 0 mm | - | 37 W/m² | - |
| 1777673898 | 12.78° C | 58% | 1011.8 hPa | 0 mm | - | 39 W/m² | - |
| 1777673594 | 12.78° C | 57% | 1011.7 hPa | 0 mm | - | 47 W/m² | - |
| 1777673293 | 12.78° C | 56% | 1011.8 hPa | 0 mm | - | 55 W/m² | - |
| 1777672989 | 12.78° C | 56% | 1011.5 hPa | 0 mm | - | 40 W/m² | - |
| 1777672686 | 13.33° C | 55% | 1011.8 hPa | 0 mm | - | 46 W/m² | - |
| 1777672381 | 13.33° C | 54% | 1011.9 hPa | 0 mm | - | 62 W/m² | - |
| 1777672077 | 13.89° C | 53% | 1011.8 hPa | 0 mm | - | 48 W/m² | - |
| 1777671773 | 14.44° C | 52% | 1011.5 hPa | 0 mm | - | 138 W/m² | - |
| 1777671469 | 14.44° C | 51% | 1011.7 hPa | 0 mm | - | 185 W/m² | - |
| 1777671166 | 14.44° C | 50% | 1011.7 hPa | 0 mm | - | 225 W/m² | - |
* Rain latest hour (hover to see other rain measurements)
** Current wind speed in m/s (hover to see current wind gust speed)